Location: G�yn�k
(36.6721°N, 30.5542°E)
Time: 21:00:44
(UTC+00:00)

BREEZE-M DEB (TANK) - Pass Details

Date: 10 October 2020
Orbit: 333 x 12040 km, 49.7° (Epoch: 26 October)

Event Time Altitude Azimuth Distance (km) Brightness Sun altitude
Rises 20:52:14 0° 119° (ESE) 15,408 9.2 -58.1°
Reaches altitude 10° 21:33:55 10° 95° (E) 16,206 9.4 -60.3°
Maximum altitude 21:51:40 11° 84° (E) 15,759 9.4 -60.4°
Drops below altitude 10° 22:07:26 10° 74° (ENE) 15,025 9.4 -60.0°
Sets 22:34:26 0° 54° (NE) 13,289 9.5 -58.3°
